Regional Weather Roundup
Issued by NWS

Home | Current Version | Previous Version | Text Only | Print | Product List | Glossary Off
Versions: 1 2 3 4 5 6 7 8 9 10 11 12 13 14 15 16 17 18 19 20 21 22 23 24 25 26 27 28 29 30 31 32 33 34 35 36 37 38 39 40 41 42 43 44 45 46 47 48 49 50

000
ASUS43 KMKX 290221
RWRWI

WISCONSIN REGIONAL WEATHER ROUNDUP
NATIONAL WEATHER SERVICE MILWAUKEE/SULLIVAN WI
900 PM CDT FRI APR 28 2017

NOTE: "FAIR" INDICATES FEW OR NO CLOUDS BELOW 12,000 FEET WITH NO
SIGNIFICANT WEATHER AND/OR OBSTRUCTIONS TO VISIBILITY.

WIZ001-002-006>008-014>016-023>028-290300-
NORTHWEST WISCONSIN

CITY           SKY/WX    TMP DP  RH WIND       PRES   REMARKS
SUPERIOR ARPT  CLOUDY    42  27  54 NE8       30.07R
ASHLAND        CLOUDY    38  29  70 NE8       30.08R WCI  32
HAYWARD        MOCLDY    42  27  55 N5        30.03R
SIREN          PTCLDY    42  26  53 CALM      30.05R
CUMBERLAND     CLOUDY    37  32  81 CALM      30.03R
RICE LAKE      CLOUDY    43  31  63 CALM      30.05R
CHETEK         CLOUDY    40  32  74 CALM      30.04R
LADYSMITH      MOCLDY    43  29  57 CALM      30.05R
EAU CLAIRE     CLOUDY    44  30  57 NW3       30.04R
MENOMONIE      CLOUDY    44  31  60 CALM      30.04R
NEW RICHMOND   PTCLDY    41  30  65 W6        30.05R
OSCEOLA        PTCLDY    41  32  69 SW3       30.08R
$$

WIZ003>005-009-010-017-018-290300-
NORTH CENTRAL WISCONSIN

CITY           SKY/WX    TMP DP  RH WIND       PRES   REMARKS
MANITOWISH WTR CLOUDY    35  29  76 N8G16     30.01R WCI  29
ARBOR VITAE    PTCLDY    37  32  82 N3        30.02R
WOODRUFF       PTCLDY    37  32  82 N3        30.02R
RHINELANDER    MOCLDY    39  28  64 CALM      30.01R
EAGLE RIVER    PTCLDY    32  27  83 N5        30.02R WCI  27
LAND O LAKES   PTCLDY    34  28  76 N10       30.05R WCI  26
PHILLIPS       CLOUDY    37  30  77 CALM      30.01R
TOMAHAWK       PTCLDY    34  30  83 CALM      30.03R
MEDFORD        CLOUDY    39  30  70 CALM      30.02R
MERRILL        PTCLDY    39  30  69 NE3       30.03R
$$

WIZ029-030-035-036-043>047-290300-
CENTRAL WISCONSIN

CITY           SKY/WX    TMP DP  RH WIND       PRES   REMARKS
WAUSAU         CLOUDY    43  30  60 N3        30.01R
MOSINEE        MOCLDY    43  34  70 N3        30.02R
MARSHFIELD     CLOUDY    43  32  65 N6        30.00R
STEVENS POINT  CLOUDY    42  32  65 CALM      30.02R
WAUPACA        CLOUDY    47  37  66 CALM      30.01R
WAUTOMA        CLOUDY    45  42  89 NW3       30.01
WISC RAPIDS    MOCLDY    45  33  63 N5        30.02R
CAMP DOUGLAS   CLOUDY    45  34  65 NW6       30.01R
$$

WIZ011>013-019>022-031-037>040-048>050-290300-
NORTHEAST WISCONSIN

CITY           SKY/WX    TMP DP  RH WIND       PRES   REMARKS
ANTIGO         CLOUDY    38  30  74 N9        30.03R WCI  31
SHAWANO        CLOUDY    47  33  57 NW3       30.02R
OCONTO         CLOUDY    45  32  60 N6        30.03R
STURGEON BAY   CLOUDY    42  37  82 CALM      30.04R
GREEN BAY      CLOUDY    48  38  68 NW5       30.01R
MANITOWOC      CLOUDY    41  39  93 SW3       30.02R
APPLETON       MOCLDY    46  30  53 NW3       29.99R
CLINTONVILLE   CLOUDY    46  32  57 NW3       30.01R
OSHKOSH        CLOUDY    46  39  76 NW3       30.00R
$$

WIZ032>034-041-042-053>061-290300-
SOUTHWEST WISCONSIN

CITY           SKY/WX    TMP DP  RH WIND       PRES   REMARKS
LA CROSSE      CLOUDY    47  33  58 NW3       30.04R
SPARTA         CLOUDY    44  36  74 CALM      30.04R
VIROQUA        CLOUDY    42  40  93 NW6       30.01R
BOSCOBEL       CLOUDY    46  40  79 VRB3      30.02R
PRAIRIE DU CHI CLOUDY    45  38  78 CALM      30.01R
PLATTEVILLE    CLOUDY    44  43  95 NE9       29.98R
$$

WIZ056-057-062-063-064-067-068-290300-
SOUTH CENTRAL WISCONSIN

CITY           SKY/WX    TMP DP  RH WIND       PRES   REMARKS
REEDSBURG      CLOUDY    43  40  89 CALM      29.98R
BARABOO/DELLS  CLOUDY    43  38  84 CALM      30.00R
LONE ROCK      CLOUDY    46  40  79 NE5       30.01R
MINERAL POINT  CLOUDY    45  43  93 NE6       29.98R
MADISON        CLOUDY    45  41  86 NE6       29.98R
MIDDLETON      CLOUDY    46  42  84 N5        29.99R
WATERTOWN      CLOUDY    45  45 100 N8        29.98S
MONROE         CLOUDY    43  43 100 N7        29.97R
JANESVILLE     LGT RAIN  46  46 100 N8        29.95R
$$

WIZ051-052-058>065-066-070>072-290300-
SOUTHEAST WISCONSIN

CITY           SKY/WX    TMP DP  RH WIND       PRES   REMARKS
MILWAUKEE      CLOUDY    46  40  79 N8        29.97R
WAUKESHA       CLOUDY    45  43  93 N7        29.98R FOG
MILWAUKEE/TIMM DRIZZLE   43  39  87 N8        29.99R
RACINE         CLOUDY    44  38  79 N9        29.98R
KENOSHA        CLOUDY    47  40  76 N8        29.96R
FOND DU LAC    LGT RAIN  47  40  76 N5        30.01R
SHEBOYGAN      LGT RAIN  42  40  92 E3        30.02R
WEST BEND      DRIZZLE   43  43 100 NE3       30.00R
JUNEAU         DRIZZLE   45  42  91 CALM      30.01R
$$

LSZ147-162-290300-
LAKE SUPERIOR

STATION/POSITION TIME  TEMP    WIND        PRES    WAVE
                       AIR SEA DIR/SP/G            HT/PER
                 (UTC) (F)     (DEG/KT/KT) (MB)    (FT/S)
DEVILS ISLAND    0200   39     340/ 14/ 15 1019.3R
PORT WING        0120   40      60/  4/ 21 1017.6R
SAXON HARBOR     0030   39      80/  9/ 12 1016.3R
$$

LMZ867-665-643>646-290300-
LAKE MICHIGAN

STATION/POSITION TIME  TEMP    WIND        PRES    WAVE
                       AIR SEA DIR/SP/G            HT/PER
                 (UTC) (F)     (DEG/KT/KT) (MB)    (FT/S)
CHAMBERS ISLAND  0040   43     330/ 10/ 12 1014.2R
N MID LAKE BUOY  0050   38 37  170/  2/  2 1016.3R   2/ 4
NORTHPORT PIER   0140   40      CALM  /  3 1016.3R
SISTER BAY       0006   41     150/  6/  7   N/A
KEWAUNEE LAKESHO 0200   42     180/  4/  5 1015.8
SHEBOYGAN LAKESH 0100   40     130/  2/  2 1015.8R
PORT WASHINGTON  0120   42     330/  1/ 12 1016.6R
MILWAUKEE LAKESH 0200   43     340/  8/ 10   N/A
S MID LAKE BUOY  0150   43 41   30/ 10/ 10 1014.6R   1
KENOSHA   LAKESH 0200   46      10/  9/ 13 1014.9
$$

TC  - TEMPERATURE IN CELSIUS
VSB - VISIBILITY IN STATUTE MILES
WCI - WIND CHILL INDEX
HX  - HEAT INDEX





USA.gov is the U.S. government's official web portal to all federal, state and local government web resources and services.